METEOR 2-17 DEB, 38283

Orbit data source: Space-Track

METEOR 2-17 DEB, 38283 is space debris in LEO originally from a launch on Sat, 30 Jan 1988 UTC launched from the Plesetsk Missile And Space Complex (PKMTR). Debris objects in space refer to the collection of defunct objects orbiting the Earth. Examples of debris include non-operational satellites, rocket bodies, and fragments generated from explosions, collisions, or faulty payload assembly.

Loading next visibility...
Identifier
38283, 1988-005AL
Orbit
LEO
Last TLE update
1 day ago
Origin
Manufacturer
Unknown
Mission
Spacecraft
Bus & Motor
Unknown
Mass
Unknown
Launch date (UTC)
1988-01-30 (37 years ago)
Launch vehicle
Unknown
Launch site
Plesetsk Missile And Space Complex (PKMTR)
Object type
Payload
Rocket body
Debris
Shape & HBR
Unknown
Radar Cross Section
Small (<0.1 m²)

Expand to show TLE details & history

TLE from 1 day ago
0 METEOR 2-17 DEB
1 38283U 88005AL  25128.00962168  .00002362  00000-0  15932-2 0  9990
2 38283  82.5499 241.4561 0009866 343.8326  16.2527 14.00087378 47028
Epoch: 2025-05-08T00:13Z
Definitive object data (Epoch: 2025-05-08T00:13:51.313Z)
Latitude
0.00002°
Longitude
11.90603°
Altitude
889.529 km
Speed
7.411 km/s
True Right ascension
16h 05m 49s
True Declination
0° 00' 00"
Sunlit
Object was in full shadow at TLE epoch
Visualization TLE readout
Latitude
-11.53355°
Longitude
9.27982°
Altitude
891.517 km
Speed
7.409 km/s
Apparent Right ascension
14h 03m 58s
Apparent Declination
-63° 53' 31"
Sunlit
Object is in full shadow
Visualization observer readout
Local Sidereal Time
16:55:02
Azimuth
198.443° SSW
Elevation
-19.172°
Doppler factor
1
Orbital elements
Apogee altitude
897.794 km
Perigee altitude
883.451 km
Semi-major axis
7,268.759 km
Eccentricity
0.0009866
Inclination
82.5499°
RAAN
241.4561°
Arg. of periapsis
343.8326°
True anomaly
16.28438°
Mean anomaly
16.2527°
Eccentric anomaly
16.26854°
Mean motion
3.5023 °/min
BSTAR
0.0015932
Orbital period
102.79 mins
Loading maneuver chart data...
Loading SW <> Apogee altitude chart data...
Loading historical data...
Loading historical data...
Loading historical data...
Loading historical data...
Loading historical data...
Loading historical data...
Loading historical data...

METEOR 2-17 DEB Visibility forecast

Observer location: undefined°, undefined°

Span
Click to sort rows by Start time (UTC) header in descending order
Start Az.
Max El. time (UTC)
Max El. Az.
Max El.
End time (UTC)
End Az.
10 mins2025-05-09 08:55:49.842Z216.743° SW2025-05-09 09:00:49.842Z278.83° WNW31.695°2025-05-09 09:05:49.842Z349.056° N
6 mins2025-05-09 17:59:49.842Z37.208° NE2025-05-09 18:02:49.842Z73.843° E18.009°2025-05-09 18:05:49.842Z107.886° ESE
9 mins2025-05-09 19:42:49.842Z338.372° N2025-05-09 19:46:49.842Z255.86° W40.143°2025-05-09 19:51:49.842Z190.706° SSW
8 mins2025-05-10 07:14:49.842Z138.941° SSE2025-05-10 07:17:49.842Z97.63° ESE27.516°2025-05-10 07:22:49.842Z30.377° NE
|